Back to catalog

TRANSIT 20 DEB

AlivePO
NORAD 44565·DEBRIS·🇺🇸 United States

Launched Oct 30, 1973 from Vandenberg Space Force Base

Loading…

Next Passes (next 24 hours)

TLE

FreshSource: Space-Track

Epoch: Sep 14, 2026, 09:56 UTC

1 44565U 73081E   26257.41417671  .00000628  00000-0  60056-3 0  9992
2 44565  89.8612 251.2965 0138077 314.1063  44.8806 13.75530456350067

Track TRANSIT 20 DEB in real time with AllMySat

Download on the App Store